Simultaneous Nadir Overpasses (SNOs) Predictions

Prediction of SNOs between GOES-14 and NOAA-20 Satellite Orbit:

Table of predicted SNOs for the next 14.0 days since TLE Epoch: 11/6/2021
Index Date Time (GOES-14) GOES-14 Lat,Lon NOAA-20 Lat,Lon Distance(km) Time Diff (sec)
1 11/06/2021 20:17:09 -0.17,-104.17 0.15,-102.86 150.09 80
2 11/08/2021 08:38:56 0.14,-104.36 1.00,-108.13 430.14 80
3 11/09/2021 08:17:31 0.15,-104.35 -0.01,-103.60 85.75 80
4 11/11/2021 20:20:40 -0.14,-104.16 -0.17,-104.36 22.33 80
5 11/12/2021 20:04:35 -0.14,-104.17 0.83, -99.82 495.95 80
6 11/14/2021 08:26:23 0.12,-104.38 0.26,-105.11 81.98 80
7 11/15/2021 08:04:57 0.13,-104.38 -0.69,-100.56 434.66 80
8 11/16/2021 20:26:52 -0.11,-104.17 -0.48,-105.86 192.16 80
9 11/17/2021 20:10:47 -0.12,-104.19 0.53,-101.32 326.47 80
10 11/19/2021 08:32:35 0.09,-104.43 0.56,-106.61 247.82 80
